| time (UTC) | temp F | wind direction | speed MPH | gust MPH | rain 1hr in | rain 24hr in | rain mn in | humidity % | barometer mb |
| 20260510115432 | 51 | 138 | 0.0 | 0.0 | 0.00 | 0.01 | 0.01 | 99 | 1013.4 |
| 20260510114927 | 51 | 128 | 0.0 | 0.0 | 0.00 | 0.01 | 0.01 | 99 | 1013.1 |
| 20260510114425 | 51 | 131 | 0.0 | 0.0 | 0.00 | 0.01 | 0.01 | 99 | 1012.9 |
| 20260510113920 | 51 | 139 | 0.0 | 0.0 | 0.00 | 0.01 | 0.01 | 99 | 1013.2 |
| 20260510113416 | 51 | 135 | 0.0 | 0.0 | 0.00 | 0.01 | 0.01 | 99 | 1013.3 |
| 20260510112914 | 51 | 141 | 0.0 | 0.0 | 0.00 | 0.01 | 0.01 | 99 | 1013.2 |
| 20260510112411 | 51 | 138 | 0.0 | 0.0 | 0.00 | 0.01 | 0.01 | 99 | 1013.2 |
| 20260510111907 | 51 | 131 | 0.0 | 0.0 | 0.00 | 0.01 | 0.01 | 99 | 1013.3 |
| 20260510111403 | 51 | 140 | 0.0 | 0.0 | 0.00 | 0.01 | 0.01 | 99 | 1013.2 |
| 20260510110858 | 51 | 138 | 0.0 | 0.0 | 0.00 | 0.01 | 0.01 | 99 | 1012.9 |
| 20260510110355 | 51 | 138 | 0.0 | 0.0 | 0.00 | 0.01 | 0.01 | 99 | 1013.0 |
| 20260510105851 | 50 | 135 | 0.0 | 0.0 | 0.00 | 0.01 | 0.01 | 99 | 1013.1 |
| 20260510105351 | 50 | 131 | 0.0 | 0.0 | 0.07 | 0.01 | 0.01 | 99 | 1012.9 |
| 20260510104847 | 50 | 139 | 0.0 | 0.0 | 0.07 | 0.01 | 0.01 | 99 | 1013.2 |
| 20260510104344 | 50 | 134 | 0.0 | 0.0 | 0.00 | 0.00 | 0.00 | 99 | 1012.8 |
| 20260510103840 | 50 | 134 | 0.0 | 0.0 | 0.00 | 0.00 | 0.00 | 99 | 1012.8 |
| 20260510103338 | 50 | 133 | 0.0 | 0.0 | 0.00 | 0.00 | 0.00 | 99 | 1012.5 |
| 20260510102833 | 50 | 138 | 0.0 | 0.0 | 0.00 | 0.00 | 0.00 | 99 | 1012.7 |
| 20260510102329 | 50 | 129 | 0.0 | 0.0 | 0.00 | 0.00 | 0.00 | 99 | 1012.6 |
| 20260510101826 | 50 | 133 | 0.0 | 0.0 | 0.00 | 0.00 | 0.00 | 99 | 1012.6 |
| 20260510101325 | 50 | 133 | 0.0 | 0.0 | 0.00 | 0.00 | 0.00 | 99 | 1012.8 |
| 20260510100820 | 50 | 137 | 0.0 | 0.0 | 0.00 | 0.00 | 0.00 | 99 | 1012.8 |
| 20260510100318 | 50 | 139 | 0.0 | 0.0 | 0.00 | 0.00 | 0.00 | 99 | 1012.7 |
| 20260510095814 | 50 | 134 | 0.0 | 0.0 | 0.00 | 0.00 | 0.00 | 99 | 1012.7 |
| 20260510095308 | 50 | 136 | 0.0 | 0.0 | 0.00 | 0.00 | 0.00 | 99 | 1013.0 |
| 20260510094803 | 50 | 133 | 0.0 | 0.0 | 0.00 | 0.00 | 0.00 | 99 | 1012.9 |
| 20260510094258 | 50 | 137 | 0.0 | 0.0 | 0.00 | 0.00 | 0.00 | 99 | 1012.6 |
| 20260510093754 | 50 | 137 | 0.0 | 0.0 | 0.00 | 0.00 | 0.00 | 99 | 1012.7 |
| 20260510093251 | 50 | 135 | 0.0 | 0.0 | 0.00 | 0.00 | 0.00 | 99 | 1012.6 |
| 20260510092747 | 50 | 137 | 0.0 | 0.0 | 0.00 | 0.00 | 0.00 | 99 | 1012.6 |
| 20260510092243 | 50 | 136 | 0.0 | 0.0 | 0.00 | 0.00 | 0.00 | 99 | 1012.8 |
| 20260510091739 | 50 | 129 | 0.0 | 0.0 | 0.00 | 0.00 | 0.00 | 99 | 1012.6 |
| 20260510091237 | 50 | 133 | 0.0 | 0.0 | 0.00 | 0.00 | 0.00 | 99 | 1012.5 |
| 20260510090732 | 50 | 132 | 0.0 | 0.0 | 0.00 | 0.00 | 0.00 | 99 | 1012.7 |
| 20260510090230 | 50 | 137 | 0.0 | 0.0 | 0.00 | 0.00 | 0.00 | 99 | 1012.8 |
| 20260510085725 | 50 | 134 | 0.0 | 0.0 | 0.00 | 0.00 | 0.00 | 99 | 1012.9 |
| 20260510085220 | 50 | 137 | 0.0 | 0.0 | 0.00 | 0.00 | 0.00 | 99 | 1013.1 |
| 20260510084716 | 50 | 141 | 0.0 | 0.0 | 0.00 | 0.00 | 0.00 | 99 | 1013.0 |
| 20260510084213 | 49 | 137 | 0.0 | 0.0 | 0.00 | 0.00 | 0.00 | 99 | 1013.1 |
| 20260510083710 | 49 | 137 | 0.0 | 0.0 | 0.00 | 0.00 | 0.00 | 99 | 1013.0 |
| 20260510083207 | 49 | 134 | 0.0 | 0.0 | 0.00 | 0.00 | 0.00 | 99 | 1013.2 |
| 20260510082702 | 49 | 141 | 0.0 | 0.0 | 0.00 | 0.00 | 0.00 | 99 | 1013.2 |
| 20260510082159 | 49 | 140 | 0.0 | 0.0 | 0.00 | 0.00 | 0.00 | 99 | 1013.1 |
| 20260510081653 | 49 | 138 | 0.0 | 0.0 | 0.00 | 0.00 | 0.00 | 99 | 1013.3 |
| 20260510081149 | 49 | 138 | 0.0 | 0.0 | 0.00 | 0.00 | 0.00 | 99 | 1013.0 |
| 20260510080649 | 49 | 137 | 0.0 | 0.0 | 0.00 | 0.00 | 0.00 | 99 | 1012.9 |
| 20260510080146 | 49 | 138 | 0.0 | 0.0 | 0.00 | 0.00 | 0.00 | 99 | 1012.5 |
| 20260510075643 | 50 | 138 | 1.0 | 1.0 | 0.00 | 0.00 | 0.00 | 99 | 1013.0 |
| 20260510075140 | 50 | 146 | 0.0 | 0.0 | 0.00 | 0.00 | 0.00 | 99 | 1012.9 |
| 20260510074637 | 50 | 131 | 0.0 | 0.0 | 0.00 | 0.00 | 0.00 | 99 | 1012.6 |
| 20260510074133 | 50 | 135 | 0.0 | 0.0 | 0.00 | 0.00 | 0.00 | 99 | 1012.4 |
| 20260510073629 | 50 | 131 | 0.0 | 0.0 | 0.00 | 0.00 | 0.00 | 99 | 1012.2 |
| 20260510073126 | 50 | 116 | 0.0 | 0.0 | 0.00 | 0.00 | 0.00 | 99 | 1012.2 |
| 20260510072622 | 50 | 129 | 0.0 | 0.0 | 0.00 | 0.00 | 0.00 | 99 | 1012.2 |
| 20260510072119 | 50 | 129 | 0.0 | 0.0 | 0.00 | 0.00 | 0.00 | 99 | 1012.1 |
| 20260510071614 | 50 | 116 | 0.0 | 1.0 | 0.00 | 0.00 | 0.00 | 99 | 1012.2 |
| 20260510071112 | 50 | 113 | 0.0 | 0.0 | 0.00 | 0.00 | 0.00 | 99 | 1012.2 |
| 20260510070609 | 50 | 130 | 0.0 | 0.0 | 0.00 | 0.00 | 0.00 | 99 | 1012.1 |
| 20260510070107 | 50 | 114 | 0.0 | 1.0 | 0.00 | 0.00 | 0.00 | 99 | 1012.3 |
| 20260510065603 | 50 | 124 | 0.0 | 0.0 | 0.00 | 0.00 | 0.00 | 99 | 1012.5 |
| 20260510065059 | 50 | 124 | 0.0 | 0.0 | 0.00 | 0.00 | 0.00 | 99 | 1012.2 |
| 20260510064555 | 50 | 139 | 0.0 | 0.0 | 0.00 | 0.00 | 0.00 | 99 | 1012.4 |
| 20260510064052 | 50 | 120 | 0.0 | 1.0 | 0.00 | 0.00 | 0.00 | 99 | 1012.3 |
| 20260510063549 | 50 | 137 | 0.0 | 0.0 | 0.00 | 0.00 | 0.00 | 99 | 1012.2 |
| 20260510063046 | 51 | 137 | 0.0 | 0.0 | 0.00 | 0.00 | 0.00 | 99 | 1012.3 |
| 20260510062542 | 51 | 139 | 0.0 | 0.0 | 0.00 | 0.00 | 0.00 | 99 | 1012.5 |
| 20260510062037 | 51 | 141 | 0.0 | 0.0 | 0.00 | 0.00 | 0.00 | 99 | 1012.4 |
| 20260510061534 | 51 | 139 | 0.0 | 0.0 | 0.00 | 0.00 | 0.00 | 99 | 1012.3 |
| 20260510061031 | 51 | 139 | 0.0 | 0.0 | 0.00 | 0.00 | 0.00 | 99 | 1012.3 |
| 20260510060527 | 51 | 137 | 0.0 | 0.0 | 0.00 | 0.00 | 0.00 | 99 | 1012.2 |
| 20260510060023 | 51 | 137 | 0.0 | 0.0 | 0.00 | 0.00 | 0.00 | 99 | 1012.1 |
| 20260510055519 | 51 | 137 | 0.0 | 0.0 | 0.00 | 0.00 | 0.00 | 99 | 1012.4 |
| 20260510055018 | 51 | 137 | 0.0 | 0.0 | 0.00 | 0.00 | 0.00 | 99 | 1012.3 |
| 20260510054513 | 51 | 137 | 0.0 | 0.0 | 0.00 | 0.00 | 0.00 | 99 | 1012.1 |
| 20260510054009 | 51 | 137 | 0.0 | 0.0 | 0.00 | 0.00 | 0.00 | 99 | 1012.1 |
| 20260510053503 | 51 | 137 | 0.0 | 0.0 | 0.00 | 0.00 | 0.00 | 99 | 1012.3 |
| 20260510053000 | 51 | 137 | 0.0 | 0.0 | 0.00 | 0.00 | 0.00 | 99 | 1012.1 |
| 20260510052456 | 51 | 137 | 0.0 | 0.0 | 0.00 | 0.00 | 0.00 | 99 | 1012.0 |
| 20260510051953 | 51 | 132 | 0.0 | 0.0 | 0.00 | 0.00 | 0.00 | 99 | 1012.2 |
| 20260510051448 | 51 | 137 | 0.0 | 0.0 | 0.00 | 0.00 | 0.00 | 99 | 1012.2 |
| 20260510050944 | 51 | 141 | 0.0 | 0.0 | 0.00 | 0.00 | 0.00 | 99 | 1012.2 |
| 20260510050442 | 51 | 137 | 0.0 | 0.0 | 0.00 | 0.00 | 0.00 | 99 | 1012.0 |
| 20260510045939 | 51 | 137 | 0.0 | 0.0 | 0.00 | 0.00 | 0.00 | 99 | 1012.3 |
| 20260510045436 | 50 | 137 | 0.0 | 0.0 | 0.00 | 0.00 | 0.00 | 99 | 1012.2 |
| 20260510044933 | 50 | 137 | 0.0 | 0.0 | 0.00 | 0.00 | 0.00 | 99 | 1012.3 |
| 20260510044430 | 50 | 129 | 0.0 | 0.0 | 0.00 | 0.00 | 0.00 | 99 | 1012.3 |
| 20260510043926 | 50 | 135 | 0.0 | 0.0 | 0.00 | 0.00 | 0.00 | 99 | 1012.5 |
| 20260510043422 | 50 | 132 | 0.0 | 0.0 | 0.00 | 0.00 | 0.00 | 99 | 1012.3 |
| 20260510042921 | 50 | 135 | 0.0 | 0.0 | 0.00 | 0.00 | 0.00 | 99 | 1012.5 |
| 20260510042416 | 50 | 135 | 0.0 | 0.0 | 0.00 | 0.00 | 0.00 | 99 | 1012.4 |
| 20260510041912 | 50 | 132 | 0.0 | 0.0 | 0.00 | 0.00 | 0.00 | 99 | 1012.5 |
| 20260510041409 | 50 | 132 | 0.0 | 0.0 | 0.00 | 0.00 | 0.00 | 99 | 1012.4 |
| 20260510040907 | 50 | 132 | 0.0 | 0.0 | 0.00 | 0.00 | 0.00 | 99 | 1012.3 |
| 20260510040404 | 50 | 132 | 0.0 | 0.0 | 0.00 | 0.00 | 0.00 | 99 | 1012.3 |
| 20260510035859 | 50 | 134 | 0.0 | 0.0 | 0.00 | 0.38 | 0.38 | 99 | 1012.2 |
| 20260510035356 | 50 | 145 | 0.0 | 0.0 | 0.00 | 0.38 | 0.38 | 99 | 1012.5 |
| 20260510034851 | 51 | 145 | 0.0 | 0.0 | 0.00 | 0.38 | 0.38 | 99 | 1012.3 |
| 20260510034349 | 51 | 140 | 0.0 | 0.0 | 0.00 | 0.38 | 0.38 | 99 | 1012.3 |
| 20260510033845 | 51 | 138 | 0.0 | 0.0 | 0.00 | 0.38 | 0.38 | 99 | 1012.0 |
| 20260510033342 | 51 | 138 | 0.0 | 0.0 | 0.00 | 0.38 | 0.38 | 99 | 1011.8 |
| 20260510032839 | 51 | 131 | 0.0 | 0.0 | 0.00 | 0.38 | 0.38 | 99 | 1012.1 |
| 20260510032336 | 51 | 143 | 0.0 | 0.0 | 0.00 | 0.38 | 0.38 | 99 | 1012.2 |
| 20260510031831 | 51 | 143 | 0.0 | 0.0 | 0.00 | 0.38 | 0.38 | 99 | 1012.1 |
| 20260510031327 | 50 | 137 | 0.0 | 0.0 | 0.00 | 0.38 | 0.38 | 99 | 1012.1 |
| 20260510030821 | 50 | 134 | 0.0 | 0.0 | 0.00 | 0.38 | 0.38 | 99 | 1012.0 |
| 20260510030318 | 50 | 140 | 0.0 | 0.0 | 0.00 | 0.38 | 0.38 | 99 | 1012.0 |
| 20260510025815 | 50 | 140 | 0.0 | 0.0 | 0.00 | 0.38 | 0.38 | 99 | 1012.0 |
| 20260510025312 | 51 | 130 | 0.0 | 0.0 | 0.00 | 0.38 | 0.38 | 99 | 1012.0 |
| 20260510024809 | 51 | 125 | 0.0 | 0.0 | 0.00 | 0.38 | 0.38 | 99 | 1011.9 |
| 20260510024306 | 51 | 129 | 0.0 | 0.0 | 0.00 | 0.38 | 0.38 | 99 | 1011.9 |
| 20260510023802 | 51 | 130 | 0.0 | 0.0 | 0.00 | 0.38 | 0.38 | 99 | 1012.1 |
| 20260510023259 | 51 | 131 | 0.0 | 0.0 | 0.00 | 0.38 | 0.38 | 99 | 1011.8 |
| 20260510022756 | 51 | 134 | 0.0 | 0.0 | 0.00 | 0.38 | 0.38 | 99 | 1011.9 |
| 20260510022255 | 51 | 134 | 0.0 | 0.0 | 0.00 | 0.38 | 0.38 | 99 | 1012.1 |
| 20260510021754 | 51 | 135 | 0.0 | 0.0 | 0.00 | 0.38 | 0.38 | 99 | 1012.1 |
| 20260510021253 | 51 | 139 | 0.0 | 0.0 | 0.00 | 0.38 | 0.38 | 99 | 1012.1 |
| 20260510020748 | 51 | 139 | 0.0 | 0.0 | 0.00 | 0.38 | 0.38 | 99 | 1012.2 |
| 20260510020243 | 52 | 138 | 0.0 | 0.0 | 0.00 | 0.38 | 0.38 | 99 | 1012.0 |
| 20260510015739 | 52 | 139 | 0.0 | 0.0 | 0.00 | 0.38 | 0.38 | 99 | 1012.1 |
| 20260510015236 | 52 | 139 | 0.0 | 0.0 | 0.00 | 0.38 | 0.38 | 99 | 1012.1 |
| 20260510014736 | 52 | 139 | 0.0 | 0.0 | 0.00 | 0.38 | 0.38 | 99 | 1012.1 |
| 20260510014233 | 52 | 134 | 0.0 | 0.0 | 0.00 | 0.38 | 0.38 | 99 | 1012.1 |
| 20260510013729 | 52 | 134 | 0.0 | 0.0 | 0.00 | 0.38 | 0.38 | 99 | 1012.1 |
| 20260510013219 | 51 | 134 | 0.0 | 0.0 | 0.00 | 0.38 | 0.38 | 99 | 1012.2 |
| 20260510012719 | 51 | 134 | 0.0 | 0.0 | 0.00 | 0.38 | 0.38 | 99 | 1012.1 |
| 20260510012214 | 51 | 134 | 0.0 | 0.0 | 0.00 | 0.38 | 0.38 | 99 | 1012.1 |
| 20260510011709 | 51 | 133 | 0.0 | 0.0 | 0.00 | 0.38 | 0.38 | 99 | 1012.1 |
| 20260510011205 | 51 | 129 | 0.0 | 0.0 | 0.00 | 0.38 | 0.38 | 99 | 1012.1 |
| 20260510010702 | 51 | 138 | 0.0 | 0.0 | 0.00 | 0.38 | 0.38 | 99 | 1012.0 |
| 20260510010158 | 51 | 137 | 0.0 | 0.0 | 0.00 | 0.38 | 0.38 | 99 | 1011.7 |
| 20260510005655 | 51 | 134 | 0.0 | 0.0 | 0.00 | 0.38 | 0.38 | 99 | 1011.6 |
| 20260510005152 | 51 | 133 | 0.0 | 0.0 | 0.00 | 0.38 | 0.38 | 99 | 1011.7 |
| 20260510004650 | 51 | 133 | 0.0 | 0.0 | 0.00 | 0.38 | 0.38 | 99 | 1011.7 |
| 20260510004148 | 52 | 133 | 0.0 | 0.0 | 0.00 | 0.38 | 0.38 | 99 | 1011.4 |
| 20260510003645 | 52 | 133 | 0.0 | 0.0 | 0.00 | 0.38 | 0.38 | 99 | 1011.4 |
| 20260510003140 | 52 | 133 | 0.0 | 0.0 | 0.00 | 0.38 | 0.38 | 99 | 1011.3 |
| 20260510002640 | 52 | 138 | 0.0 | 0.0 | 0.00 | 0.38 | 0.38 | 99 | 1011.4 |
| 20260510002137 | 53 | 138 | 0.0 | 0.0 | 0.00 | 0.38 | 0.38 | 99 | 1011.6 |
| 20260510001634 | 53 | 135 | 0.0 | 0.0 | 0.00 | 0.38 | 0.38 | 99 | 1011.6 |
| 20260510001133 | 53 | 131 | 0.0 | 0.0 | 0.00 | 0.38 | 0.38 | 99 | 1011.4 |
| 20260510000633 | 53 | 141 | 0.0 | 0.0 | 0.00 | 0.38 | 0.38 | 99 | 1011.5 |
| 20260510000131 | 53 | 160 | 0.0 | 0.0 | 0.00 | 0.38 | 0.38 | 99 | 1011.4 |
| 20260509235627 | 53 | 160 | 0.0 | 0.0 | 0.00 | 0.38 | 0.38 | 99 | 1011.4 |
| 20260509235124 | 53 | 160 | 0.0 | 0.0 | 0.00 | 0.38 | 0.38 | 99 | 1011.5 |
| 20260509234620 | 53 | 160 | 0.0 | 0.0 | 0.00 | 0.38 | 0.38 | 99 | 1011.3 |
| 20260509234118 | 54 | 137 | 0.0 | 0.0 | 0.00 | 0.38 | 0.38 | 99 | 1011.3 |
| 20260509233615 | 53 | 134 | 0.0 | 0.0 | 0.00 | 0.38 | 0.38 | 99 | 1011.4 |
| 20260509233112 | 53 | 139 | 0.0 | 0.0 | 0.00 | 0.38 | 0.38 | 99 | 1011.1 |
| 20260509232608 | 53 | 135 | 0.0 | 0.0 | 0.00 | 0.38 | 0.38 | 99 | 1011.2 |
| 20260509232106 | 53 | 138 | 0.0 | 0.0 | 0.00 | 0.38 | 0.38 | 99 | 1010.9 |
| 20260509231602 | 53 | 132 | 0.0 | 0.0 | 0.00 | 0.38 | 0.38 | 99 | 1011.1 |
| 20260509231100 | 53 | 146 | 0.0 | 1.0 | 0.00 | 0.38 | 0.38 | 99 | 1011.3 |
| 20260509230556 | 54 | 140 | 0.0 | 1.0 | 0.00 | 0.38 | 0.38 | 99 | 1011.3 |
| 20260509230054 | 53 | 132 | 0.0 | 0.0 | 0.00 | 0.38 | 0.38 | 99 | 1011.1 |
| 20260509225549 | 54 | 137 | 0.0 | 0.0 | 0.00 | 0.38 | 0.38 | 99 | 1011.2 |
| 20260509225044 | 54 | 123 | 1.0 | 1.0 | 0.00 | 0.38 | 0.38 | 99 | 1011.2 |
| 20260509224540 | 54 | 132 | 0.0 | 0.0 | 0.00 | 0.38 | 0.38 | 99 | 1011.0 |
| 20260509224037 | 54 | 131 | 0.0 | 0.0 | 0.00 | 0.38 | 0.38 | 99 | 1011.5 |
| 20260509223534 | 54 | 138 | 0.0 | 0.0 | 0.00 | 0.38 | 0.38 | 99 | 1011.2 |
| 20260509223032 | 54 | 119 | 0.0 | 1.0 | 0.00 | 0.38 | 0.38 | 99 | 1011.5 |
| 20260509222528 | 54 | 118 | 0.0 | 0.0 | 0.00 | 0.38 | 0.38 | 99 | 1011.6 |
| 20260509222023 | 54 | 133 | 0.0 | 0.0 | 0.00 | 0.38 | 0.38 | 99 | 1011.4 |
| 20260509221520 | 54 | 134 | 0.0 | 0.0 | 0.00 | 0.38 | 0.38 | 99 | 1011.7 |
| 20260509221016 | 53 | 129 | 0.0 | 0.0 | 0.00 | 0.38 | 0.38 | 99 | 1011.5 |
| 20260509220512 | 54 | 135 | 0.0 | 0.0 | 0.00 | 0.38 | 0.38 | 99 | 1011.4 |
| 20260509220008 | 54 | 102 | 0.0 | 0.0 | 0.00 | 0.38 | 0.38 | 99 | 1011.5 |
| 20260509215504 | 54 | 136 | 0.0 | 0.0 | 0.00 | 0.38 | 0.38 | 99 | 1011.6 |
| 20260509215001 | 54 | 145 | 0.0 | 0.0 | 0.00 | 0.38 | 0.38 | 99 | 1011.3 |
| 20260509214459 | 54 | 139 | 0.0 | 0.0 | 0.00 | 0.38 | 0.38 | 99 | 1011.6 |
| 20260509213955 | 54 | 134 | 0.0 | 0.0 | 0.00 | 0.38 | 0.38 | 99 | 1011.6 |
| 20260509213451 | 54 | 135 | 0.0 | 0.0 | 0.00 | 0.38 | 0.38 | 99 | 1011.3 |
| 20260509212948 | 53 | 131 | 0.0 | 0.0 | 0.00 | 0.38 | 0.38 | 99 | 1011.3 |
| 20260509212445 | 53 | 126 | 1.0 | 1.0 | 0.17 | 0.38 | 0.38 | 99 | 1011.5 |
| 20260509211941 | 53 | 135 | 0.0 | 0.0 | 0.24 | 0.38 | 0.38 | 99 | 1011.7 |
| 20260509211437 | 53 | 110 | 0.0 | 0.0 | 0.19 | 0.35 | 0.35 | 99 | 1011.6 |
| 20260509210934 | 53 | 128 | 0.0 | 0.0 | 0.24 | 0.34 | 0.34 | 99 | 1011.7 |
| 20260509210431 | 53 | 130 | 0.0 | 0.0 | 0.19 | 0.32 | 0.32 | 99 | 1011.6 |
| 20260509205926 | 53 | 135 | 0.0 | 0.0 | 0.19 | 0.31 | 0.31 | 99 | 1011.5 |
| 20260509205421 | 53 | 138 | 0.0 | 0.0 | 0.05 | 0.29 | 0.29 | 99 | 1011.5 |
| 20260509204917 | 53 | 133 | 0.0 | 0.0 | 0.12 | 0.28 | 0.28 | 99 | 1011.4 |
| 20260509204414 | 53 | 136 | 0.0 | 0.0 | 0.12 | 0.28 | 0.28 | 98 | 1011.2 |
| 20260509203911 | 53 | 139 | 0.0 | 0.0 | 0.07 | 0.26 | 0.26 | 98 | 1011.4 |
| 20260509203406 | 53 | 134 | 0.0 | 0.0 | 0.19 | 0.26 | 0.26 | 98 | 1011.6 |
| 20260509202904 | 53 | 143 | 0.0 | 0.0 | 0.28 | 0.25 | 0.25 | 98 | 1011.4 |
| 20260509202400 | 53 | 144 | 0.0 | 0.0 | 0.17 | 0.23 | 0.23 | 98 | 1011.6 |
| 20260509201855 | 53 | 158 | 0.0 | 1.0 | 0.07 | 0.20 | 0.20 | 98 | 1011.7 |
| 20260509201350 | 54 | 137 | 0.0 | 0.0 | 0.07 | 0.19 | 0.19 | 98 | 1011.6 |
| 20260509200848 | 54 | 134 | 0.0 | 0.0 | 0.07 | 0.19 | 0.19 | 98 | 1011.8 |
| 20260509200342 | 54 | 139 | 0.0 | 0.0 | 0.05 | 0.18 | 0.18 | 98 | 1011.8 |
| 20260509195839 | 54 | 138 | 0.0 | 0.0 | 0.12 | 0.18 | 0.18 | 97 | 1011.9 |
| 20260509195334 | 54 | 133 | 0.0 | 0.0 | 0.07 | 0.17 | 0.17 | 97 | 1012.1 |
| 20260509194833 | 54 | 138 | 0.0 | 0.0 | 0.12 | 0.16 | 0.16 | 97 | 1012.0 |
| 20260509194330 | 54 | 127 | 0.0 | 0.0 | 0.24 | 0.16 | 0.16 | 97 | 1012.0 |
| 20260509193826 | 54 | 143 | 0.0 | 0.0 | 0.17 | 0.14 | 0.14 | 96 | 1011.8 |
| 20260509193321 | 54 | 138 | 0.0 | 0.0 | 0.17 | 0.12 | 0.12 | 96 | 1012.2 |
| 20260509192817 | 54 | 122 | 0.0 | 0.0 | 0.24 | 0.11 | 0.11 | 96 | 1012.1 |
| 20260509192314 | 54 | 141 | 0.0 | 1.0 | 0.19 | 0.09 | 0.09 | 95 | 1012.1 |
| 20260509191809 | 55 | 152 | 0.0 | 1.0 | 0.07 | 0.07 | 0.07 | 94 | 1012.2 |
| 20260509191305 | 55 | 144 | 0.0 | 0.0 | 0.07 | 0.06 | 0.06 | 94 | 1012.0 |
| 20260509190801 | 55 | 138 | 0.0 | 0.0 | 0.12 | 0.06 | 0.06 | 93 | 1012.1 |
| 20260509190258 | 55 | 146 | 0.0 | 0.0 | 0.05 | 0.05 | 0.05 | 93 | 1011.9 |
| 20260509185755 | 55 | 145 | 0.0 | 0.0 | 0.00 | 0.04 | 0.04 | 93 | 1012.2 |
| 20260509185251 | 55 | 138 | 0.0 | 0.0 | 0.00 | 0.04 | 0.04 | 93 | 1012.3 |
| 20260509184749 | 55 | 167 | 1.0 | 1.0 | 0.00 | 0.04 | 0.04 | 93 | 1011.9 |
| 20260509184247 | 55 | 132 | 0.0 | 0.0 | 0.07 | 0.04 | 0.04 | 93 | 1011.8 |
| 20260509183743 | 55 | 135 | 0.0 | 1.0 | 0.07 | 0.04 | 0.04 | 92 | 1011.8 |
| 20260509183238 | 55 | 149 | 1.0 | 1.0 | 0.00 | 0.03 | 0.03 | 92 | 1011.7 |
| 20260509182734 | 55 | 138 | 0.0 | 0.0 | 0.05 | 0.03 | 0.03 | 91 | 1012.1 |
| 20260509182232 | 56 | 161 | 0.0 | 0.0 | 0.12 | 0.03 | 0.03 | 90 | 1012.5 |
| 20260509181729 | 56 | 132 | 0.0 | 0.0 | 0.07 | 0.02 | 0.02 | 88 | 1012.4 |
| 20260509181226 | 57 | 144 | 1.0 | 1.0 | 0.05 | 0.01 | 0.01 | 86 | 1012.6 |
| 20260509180723 | 58 | 150 | 0.0 | 0.0 | 0.05 | 0.01 | 0.01 | 84 | 1012.7 |
| 20260509180220 | 58 | 144 | 1.0 | 1.0 | 0.00 | 0.00 | 0.00 | 82 | 1012.7 |
| 20260509175716 | 59 | 144 | 0.0 | 0.0 | 0.00 | 0.00 | 0.00 | 80 | 1012.6 |
| 20260509175212 | 59 | 126 | 0.0 | 0.0 | 0.00 | 0.00 | 0.00 | 79 | 1012.8 |
| 20260509174708 | 59 | 153 | 0.0 | 1.0 | 0.00 | 0.00 | 0.00 | 79 | 1012.6 |
| 20260509174203 | 59 | 138 | 0.0 | 0.0 | 0.00 | 0.00 | 0.00 | 77 | 1012.5 |
| 20260509173700 | 60 | 155 | 0.0 | 1.0 | 0.00 | 0.00 | 0.00 | 76 | 1012.4 |
| 20260509173155 | 61 | 147 | 0.0 | 1.0 | 0.00 | 0.00 | 0.00 | 74 | 1012.3 |
| 20260509172652 | 62 | 137 | 0.0 | 1.0 | 0.00 | 0.00 | 0.00 | 72 | 1012.2 |
| 20260509172148 | 62 | 143 | 1.0 | 1.0 | 0.00 | 0.00 | 0.00 | 69 | 1012.1 |
| 20260509171643 | 63 | 118 | 0.0 | 1.0 | 0.00 | 0.00 | 0.00 | 69 | 1012.0 |
| 20260509171140 | 62 | 149 | 1.0 | 1.0 | 0.00 | 0.00 | 0.00 | 70 | 1012.1 |
| 20260509170637 | 60 | 140 | 0.0 | 0.0 | 0.00 | 0.00 | 0.00 | 71 | 1012.1 |
| 20260509170133 | 60 | 138 | 1.0 | 1.0 | 0.00 | 0.00 | 0.00 | 72 | 1012.2 |
| 20260509165631 | 61 | 156 | 0.0 | 1.0 | 0.00 | 0.00 | 0.00 | 71 | 1012.2 |
| 20260509165127 | 61 | 137 | 0.0 | 0.0 | 0.00 | 0.00 | 0.00 | 72 | 1012.2 |
| 20260509164623 | 61 | 148 | 0.0 | 0.0 | 0.00 | 0.00 | 0.00 | 71 | 1012.1 |
| 20260509164119 | 61 | 141 | 0.0 | 0.0 | 0.00 | 0.00 | 0.00 | 71 | 1012.3 |
| 20260509163617 | 60 | 141 | 0.0 | 0.0 | 0.00 | 0.00 | 0.00 | 71 | 1012.4 |
| 20260509163112 | 60 | 162 | 1.0 | 1.0 | 0.00 | 0.00 | 0.00 | 71 | 1012.4 |
| 20260509162610 | 60 | 133 | 0.0 | 0.0 | 0.00 | 0.00 | 0.00 | 71 | 1012.6 |
| 20260509162106 | 60 | 135 | 0.0 | 0.0 | 0.00 | 0.00 | 0.00 | 72 | 1012.5 |
| 20260509161603 | 61 | 135 | 1.0 | 1.0 | 0.00 | 0.00 | 0.00 | 70 | 1012.7 |
| 20260509161102 | 61 | 161 | 1.0 | 1.0 | 0.00 | 0.00 | 0.00 | 71 | 1012.4 |
| 20260509160559 | 61 | 149 | 0.0 | 0.0 | 0.00 | 0.00 | 0.00 | 72 | 1012.5 |
| 20260509160054 | 60 | 139 | 0.0 | 0.0 | 0.00 | 0.00 | 0.00 | 74 | 1012.7 |
| 20260509155551 | 60 | 166 | 1.0 | 1.0 | 0.00 | 0.00 | 0.00 | 73 | 1012.6 |
| 20260509155047 | 60 | 160 | 1.0 | 1.0 | 0.00 | 0.00 | 0.00 | 73 | 1012.8 |
| 20260509154543 | 60 | 155 | 1.0 | 1.0 | 0.00 | 0.00 | 0.00 | 72 | 1012.6 |
| 20260509154041 | 61 | 224 | 1.0 | 1.0 | 0.00 | 0.00 | 0.00 | 71 | 1012.8 |
| 20260509153538 | 61 | 141 | 0.0 | 1.0 | 0.00 | 0.00 | 0.00 | 73 | 1013.0 |
| 20260509153035 | 61 | 152 | 1.0 | 2.0 | 0.00 | 0.00 | 0.00 | 72 | 1013.1 |
| 20260509152530 | 61 | 181 | 2.0 | 2.0 | 0.00 | 0.00 | 0.00 | 71 | 1012.9 |
| 20260509152028 | 61 | 154 | 0.0 | 1.0 | 0.00 | 0.00 | 0.00 | 73 | 1012.7 |
| 20260509151524 | 61 | 148 | 1.0 | 1.0 | 0.00 | 0.00 | 0.00 | 73 | 1012.9 |
| 20260509151022 | 60 | 173 | 1.0 | 1.0 | 0.00 | 0.00 | 0.00 | 75 | 1013.0 |
| 20260509150519 | 60 | 145 | 1.0 | 1.0 | 0.00 | 0.00 | 0.00 | 77 | 1013.0 |
| 20260509150018 | 59 | 163 | 0.0 | 1.0 | 0.00 | 0.00 | 0.00 | 78 | 1013.2 |
| 20260509145513 | 59 | 193 | 1.0 | 1.0 | 0.00 | 0.00 | 0.00 | 78 | 1013.0 |
| 20260509145008 | 59 | 143 | 1.0 | 1.0 | 0.00 | 0.00 | 0.00 | 78 | 1013.1 |
| 20260509144505 | 59 | 136 | 0.0 | 0.0 | 0.00 | 0.00 | 0.00 | 77 | 1012.9 |
| 20260509144002 | 59 | 140 | 1.0 | 1.0 | 0.00 | 0.00 | 0.00 | 77 | 1013.2 |
| 20260509143459 | 60 | 109 | 1.0 | 1.0 | 0.00 | 0.00 | 0.00 | 77 | 1012.9 |
| 20260509142956 | 60 | 143 | 1.0 | 1.0 | 0.00 | 0.00 | 0.00 | 76 | 1013.0 |
| 20260509142452 | 61 | 154 | 0.0 | 0.0 | 0.00 | 0.00 | 0.00 | 75 | 1012.8 |
| 20260509141948 | 60 | 140 | 0.0 | 0.0 | 0.00 | 0.00 | 0.00 | 75 | 1012.8 |
| 20260509141444 | 59 | 173 | 1.0 | 1.0 | 0.00 | 0.00 | 0.00 | 76 | 1013.0 |
| 20260509140941 | 59 | 172 | 1.0 | 1.0 | 0.00 | 0.00 | 0.00 | 77 | 1012.9 |
| 20260509140437 | 59 | 198 | 0.0 | 1.0 | 0.00 | 0.00 | 0.00 | 79 | 1012.9 |
| 20260509135936 | 57 | 102 | 0.0 | 0.0 | 0.00 | 0.00 | 0.00 | 80 | 1012.9 |
| 20260509135433 | 57 | 130 | 0.0 | 1.0 | 0.00 | 0.00 | 0.00 | 81 | 1012.9 |
| 20260509134930 | 56 | 154 | 0.0 | 0.0 | 0.00 | 0.00 | 0.00 | 82 | 1013.2 |
| 20260509134428 | 55 | 135 | 0.0 | 0.0 | 0.00 | 0.00 | 0.00 | 83 | 1012.9 |
| 20260509133925 | 55 | 146 | 0.0 | 0.0 | 0.00 | 0.00 | 0.00 | 83 | 1013.2 |
| 20260509133421 | 55 | 141 | 0.0 | 1.0 | 0.00 | 0.00 | 0.00 | 84 | 1013.2 |
| 20260509132920 | 54 | 142 | 0.0 | 0.0 | 0.00 | 0.00 | 0.00 | 84 | 1012.9 |
| 20260509132418 | 54 | 114 | 0.0 | 0.0 | 0.00 | 0.00 | 0.00 | 84 | 1012.9 |
| 20260509131914 | 54 | 116 | 0.0 | 0.0 | 0.00 | 0.00 | 0.00 | 84 | 1012.9 |
| 20260509131412 | 54 | 121 | 0.0 | 0.0 | 0.00 | 0.00 | 0.00 | 85 | 1013.4 |
| 20260509130908 | 54 | 135 | 0.0 | 0.0 | 0.00 | 0.00 | 0.00 | 86 | 1013.2 |
| 20260509130403 | 53 | 135 | 0.0 | 0.0 | 0.00 | 0.00 | 0.00 | 87 | 1013.2 |
| 20260509125901 | 53 | 112 | 1.0 | 1.0 | 0.00 | 0.00 | 0.00 | 86 | 1013.3 |
| 20260509125357 | 53 | 137 | 0.0 | 0.0 | 0.00 | 0.00 | 0.00 | 86 | 1013.4 |
| 20260509124853 | 52 | 115 | 1.0 | 1.0 | 0.00 | 0.00 | 0.00 | 86 | 1013.1 |
| 20260509124350 | 52 | 120 | 0.0 | 0.0 | 0.00 | 0.00 | 0.00 | 86 | 1013.4 |
| 20260509123848 | 52 | 132 | 0.0 | 0.0 | 0.00 | 0.00 | 0.00 | 86 | 1013.5 |
| 20260509123345 | 52 | 119 | 0.0 | 0.0 | 0.00 | 0.00 | 0.00 | 86 | 1013.3 |
| 20260509122841 | 52 | 134 | 0.0 | 0.0 | 0.00 | 0.00 | 0.00 | 86 | 1013.2 |
| 20260509122338 | 51 | 113 | 0.0 | 1.0 | 0.00 | 0.00 | 0.00 | 87 | 1013.2 |
| 20260509121835 | 51 | 129 | 0.0 | 0.0 | 0.00 | 0.00 | 0.00 | 88 | 1013.3 |
| 20260509121332 | 51 | 89 | 1.0 | 1.0 | 0.00 | 0.00 | 0.00 | 88 | 1013.3 |
| 20260509120830 | 51 | 112 | 1.0 | 1.0 | 0.00 | 0.00 | 0.00 | 88 | 1013.6 |
| 20260509120327 | 51 | 136 | 0.0 | 0.0 | 0.00 | 0.00 | 0.00 | 88 | 1013.4 |